Change the Weather History Date:

Tuesday, October 30, 2012

  Actual Average Record
Temperature  
Mean Temperature 40 °F 53 °F  
Max Temperature 43 °F 63 °F 83 °F (1971)
Min Temperature 37 °F 43 °F 23 °F (1895)
Degree Days  
Heating Degree Days 25 13  
Month to date heating degree days 306 258  
Since 1 July heating degree days 380 312  
Cooling Degree Days 0 0  
Month to date cooling degree days 6 23  
Year to date cooling degree days 1359 1186  
Moisture  
Dew Point 34 °F    
Average Humidity 77    
Maximum Humidity 100    
Minimum Humidity 53    
Precipitation  
Precipitation 0.26 in 0.10 in 0.97 in (1929)
Month to date precipitation 1.26 3.02  
Year to date precipitation 34.29 37.60  
Snow  
Snow 0.00 in 0.00 in 2.30 in (1925)
Month to date snowfall 0.0 0.0  
Since 1 July snowfall 0.0 0.0  
Since 1 September snowfall 0.0 0.0  
Snow Depth 0.00 in    
Sea Level Pressure  
Sea Level Pressure 29.66 in    
Wind  
Wind Speed 16 mph (WNW)    
Max Wind Speed 26 mph    
Max Gust Speed 38 mph    
Visibility 9 miles    
Events Rain    
T = Trace of Precipitation, MM = Missing Value Source: NWS Daily Summary

Daily Weather History Graph

Daily Weather History Graph

Search for Another Location

Airport or City:

Trip Planner

Search our weather history database for the weather conditions in past years. The results will help you decide how hot, cold, wet, or windy it might be!

Date:

Astronomy

Oct. 30, 2012 Rise Set
Actual Time 8:02 AM EDT 6:40 PM EDT
Civil Twilight 7:35 AM EDT 7:08 PM EDT
Nautical Twilight 7:04 AM EDT 7:39 PM EDT
Astronomical Twilight 6:33 AM EDT 8:09 PM EDT
Moon 7:11 PM EDT 8:47 AM EDT
Length of Visible Light 11h 32m
Length of Day
10h 38m
Full, 99% of the Moon is Illuminated
Oct 30
Full
Nov 6
Last Quarter
Nov 13
New
Nov 20
First Quarter
Nov 28
Full

Hourly Weather History & Observations

Time (EDT) Temp. Windchill Dew Point Humidity Pressure Visibility Wind Dir Wind Speed Gust Speed Precip Events Conditions
12:54 AM 43.0 °F 35.4 °F 28.0 °F 56% 29.74 in 10.0 mi NW 16.1 mph 34.5 mph N/A   Overcast
1:54 AM 43.0 °F 36.0 °F 30.0 °F 60% 29.71 in 10.0 mi NW 13.8 mph 25.3 mph N/A   Overcast
2:54 AM 42.1 °F 32.8 °F 28.9 °F 60% 29.68 in 10.0 mi NW 21.9 mph 33.4 mph N/A   Overcast
3:54 AM 42.1 °F 34.2 °F 27.0 °F 55% 29.65 in 10.0 mi NW 16.1 mph 26.5 mph N/A   Overcast
4:54 AM 42.1 °F 33.1 °F 28.9 °F 60% 29.62 in 10.0 mi NW 20.7 mph 35.7 mph N/A   Overcast
5:54 AM 41.0 °F 31.6 °F 30.9 °F 67% 29.61 in 10.0 mi WNW 20.7 mph 32.2 mph N/A   Overcast
6:19 AM 41.0 °F 30.7 °F 32.0 °F 70% 29.60 in 10.0 mi NW 25.3 mph 38.0 mph N/A   Overcast
6:54 AM 39.9 °F 31.1 °F 32.0 °F 73% 29.61 in 10.0 mi WNW 17.3 mph 28.8 mph N/A   Overcast
7:54 AM 39.0 °F 31.4 °F 34.0 °F 82% 29.61 in 10.0 mi WNW 12.7 mph 20.7 mph 0.00 in Rain Light Rain
8:54 AM 37.9 °F 30.0 °F 35.1 °F 89% 29.62 in 8.0 mi WNW 12.7 mph - 0.01 in Rain Light Rain
9:41 AM 37.4 °F 28.5 °F 35.6 °F 93% 29.61 in 8.0 mi West 15.0 mph 21.9 mph 0.02 in Rain Light Rain
9:54 AM 37.0 °F 28.1 °F 35.1 °F 93% 29.62 in 8.0 mi West 15.0 mph 21.9 mph 0.02 in Rain Light Rain
10:35 AM 37.4 °F 27.8 °F 35.6 °F 93% 29.61 in 7.0 mi West 17.3 mph 24.2 mph 0.02 in Rain Light Rain
10:54 AM 37.0 °F 27.7 °F 36.0 °F 96% 29.62 in 6.0 mi West 16.1 mph - 0.02 in Rain Light Rain
11:54 AM 37.9 °F 28.2 °F 36.0 °F 93% 29.62 in 5.0 mi WNW 18.4 mph 24.2 mph 0.01 in Rain Light Rain
12:54 PM 37.9 °F 30.9 °F 36.0 °F 93% 29.63 in 9.0 mi West 10.4 mph 23.0 mph 0.01 in Rain Light Rain
1:54 PM 39.0 °F 30.6 °F 36.0 °F 89% 29.62 in 10.0 mi West 15.0 mph 27.6 mph 0.03 in Rain Light Rain
2:54 PM 39.0 °F 30.6 °F 37.0 °F 93% 29.62 in 8.0 mi WNW 15.0 mph 21.9 mph 0.02 in Rain Light Rain
3:54 PM 39.0 °F 29.9 °F 37.0 °F 93% 29.62 in 10.0 mi West 17.3 mph 27.6 mph 0.03 in Rain Light Rain
4:54 PM 37.9 °F 29.2 °F 36.0 °F 93% 29.64 in 10.0 mi West 15.0 mph 23.0 mph 0.01 in Rain Light Rain
5:43 PM 37.4 °F 28.9 °F 37.4 °F 100% 29.65 in 9.0 mi West 13.8 mph 25.3 mph 0.01 in Rain Light Rain
5:54 PM 37.9 °F 28.2 °F 36.0 °F 93% 29.67 in 7.0 mi West 18.4 mph 25.3 mph 0.02 in Rain Light Rain
6:54 PM 37.9 °F 28.9 °F 36.0 °F 93% 29.70 in 8.0 mi West 16.1 mph 25.3 mph 0.04 in Rain Light Rain
7:54 PM 37.9 °F 29.2 °F 36.0 °F 93% 29.72 in 10.0 mi West 15.0 mph 27.6 mph 0.02 in Rain Light Rain
8:54 PM 37.9 °F 29.6 °F 36.0 °F 93% 29.73 in 10.0 mi West 13.8 mph - 0.01 in Rain Light Rain
9:48 PM 37.4 °F 29.8 °F 37.4 °F 100% 29.72 in 6.0 mi West 11.5 mph 19.6 mph 0.00 in Rain Light Rain
9:54 PM 37.9 °F 29.2 °F 37.0 °F 97% 29.74 in 5.0 mi West 15.0 mph 19.6 mph 0.00 in Rain Light Rain
10:54 PM 37.9 °F 29.2 °F 37.0 °F 97% 29.75 in 10.0 mi West 15.0 mph - 0.01 in   Overcast
11:54 PM 37.9 °F 29.6 °F 37.0 °F 97% 29.74 in 10.0 mi West 13.8 mph - 0.00 in Rain Light Rain